This is the latest recevied weather packets stored in our database for station/object HB9ZRH-10. If no packets are shown the sender has not sent any weather packets the latest 10 day(s).
| Time | Temp. | Humidity | Pressure | Rain* | Wind** | Luminosity | Snow |
|---|---|---|---|---|---|---|---|
| 1777900542 | 28.89° C | 36% | 1013 hPa | - | - | - | - |
| 1777900242 | 29.44° C | 35% | 1013 hPa | - | - | - | - |
| 1777899942 | 29.44° C | 35% | 1013.1 hPa | - | - | - | - |
| 1777899642 | 29.44° C | 35% | 1013.1 hPa | - | - | - | - |
| 1777899342 | 28.89° C | 36% | 1013.1 hPa | - | - | - | - |
| 1777899042 | 28.89° C | 36% | 1013.2 hPa | - | - | - | - |
| 1777898742 | 28.89° C | 36% | 1013.2 hPa | - | - | - | - |
| 1777898442 | 28.33° C | 36% | 1013.2 hPa | - | - | - | - |
| 1777898142 | 28.33° C | 36% | 1013.1 hPa | - | - | - | - |
| 1777897842 | 28.33° C | 36% | 1013.2 hPa | - | - | - | - |
| 1777897542 | 28.33° C | 36% | 1013.2 hPa | - | - | - | - |
| 1777897242 | 28.33° C | 36% | 1013.2 hPa | - | - | - | - |
| 1777896942 | 27.78° C | 36% | 1013.2 hPa | - | - | - | - |
| 1777896642 | 27.78° C | 36% | 1013.2 hPa | - | - | - | - |
| 1777896342 | 27.78° C | 36% | 1013.3 hPa | - | - | - | - |
| 1777896042 | 27.78° C | 36% | 1013.2 hPa | - | - | - | - |
| 1777895742 | 27.78° C | 36% | 1013.3 hPa | - | - | - | - |
| 1777895442 | 27.78° C | 36% | 1013.3 hPa | - | - | - | - |
| 1777895142 | 27.78° C | 36% | 1013.3 hPa | - | - | - | - |
| 1777894842 | 27.22° C | 36% | 1013.3 hPa | - | - | - | - |
| 1777894542 | 27.22° C | 36% | 1013.3 hPa | - | - | - | - |
| 1777894242 | 27.22° C | 36% | 1013.3 hPa | - | - | - | - |
| 1777893942 | 27.78° C | 35% | 1013.2 hPa | - | - | - | - |
| 1777893642 | 28.33° C | 35% | 1013.2 hPa | - | - | - | - |
| 1777893342 | 27.78° C | 35% | 1013.4 hPa | - | - | - | - |
* Rain since midnight (hover to see other rain measurements)
** Current wind speed in m/s (hover to see current wind gust speed)